Location: Lafig�re
(44.4503°N, 4.0357°E)
Time: 04:36:39
(UTC+00:00)

Vanguard 2 Rocket - Pass Details

Date: 26 June 2021
Orbit: 554 x 3325 km, 32.9° (Epoch: 26 July)

Event Time Altitude Azimuth Distance (km) Brightness Sun altitude
Rises 21:41:36 0° 275° (W) 7,314 12.0 -16.4°
Reaches altitude 10° 21:47:05 10° 269° (W) 6,210 11.5 -16.9°
Maximum altitude 22:03:54 41° 209° (SSW) 3,453 9.5 -18.2°
Enters shadow 22:11:25 24° 159° (SSE) 3,661 9.3 -18.8°
